{"data":{"norad_id":45439,"intl_designator":"2020-020R","name":"ONEWEB-0096","alt_names":[],"object_type":"PAYLOAD","status":"ACTIVE","operator":null,"country":"UK","launch_date":"2020-03-21","launch_site_code":"TYMSC","launch_vehicle":null,"mission":null,"orbit_class":"UNKNOWN","rcs_meters":null,"size_class":null,"mass_kg":null,"dimensions":null,"purposes":["comms"],"wikipedia_slug":null,"has_3d_model":false,"image_url":null,"decayed_at":null,"tle_current":{"epoch":"2026-09-20T01:06:54.724608Z","epoch_age_seconds":53710,"freshness":"FRESH","line1":"1 45439U 20020R   26263.04646672  .00000397  00000+0  10837-2 0  9992","line2":"2 45439  87.8972   2.2101 0001746 104.7945 255.3377 13.11414657315095","mean_motion":13.11414657,"eccentricity":0.0001746,"inclination_deg":87.8972,"raan_deg":2.2101,"arg_perigee_deg":104.7945,"mean_anomaly_deg":255.3377,"bstar":0.0010837,"rev_number":31509,"period_min":109.80508661495,"perigee_km":1216.3653015632,"apogee_km":1219.017764887,"semimajor_km":7595.8285332251,"source":"CELESTRAK","updated_at":"2026-09-20T09:00:44.555293Z"}}}